Weather in Novosil

Russia / Oryol Oblast     52°58′28″N   37°02′37″E
temp.,
°C
wind,
m/s
gust,
m/s
humid.,
%
clouds,
%
prec.,
mm/h
press.,
hPa
HPBL,
m
20 january, thu
thu2000:00−15sw369684 0.0 101870
03:00−12ssw399676 0.0 1017138
06:00−10ssw5129799 0.0 1014227
09:00−10ssw51396100 0.1 1014261
12:00−8ssw61595100 0.0 1013416
15:00−7s71594100 0.1 1010474
18:00−7s81693100 0.1 1008471
21:00−6s81693100 0.1 1007565
21 january, fri
fri2100:00−5s71595100 0.8 1006573
03:00−5s71495100 1.9 1004540
06:00−5s71395100 1.8 1002537
09:00−5s61296100 3.3 1000545
12:00−3ssw5996100 1.1 999470
15:00−4sw51087100 1.6 999520
18:00−7ssw6119299 0.0 1001370
21:00−6s71495100 0.3 1000582
22 january, sat
sat2200:00−4ssw71394100 0.9 1000647
03:00−5ssw71495100 1.5 1001674
06:00−5ssw71394100 0.5 1003547
09:00−6s51194100 0.7 1005400
12:00−6s5994100 0.2 1008400
15:00−6sse489488 0.3 1010348
18:00−8sse489573 0.1 1012191
21:00−10sse369776 0.2 1015106
23 january, sun
sun2300:00−15sse2210092 0.1 101838
03:00−17se2210089 0.1 102011
06:00−19e22100100 0.0 102212
09:00−19e22100100 0.1 102512
12:00−11ene239785 0.0 1027105
15:00−10nne36955 0.0 1028137
18:00−14ne399643 0.0 1030126
21:00−13ne4129594 0.0 1030193
24 january, mon
mon2400:00−13ne5149416 0.0 1030222
03:00−11ne61693100 0.0 1030324
06:00−9ne71692100 0.0 1029421
09:00−8ne61395100 0.4 1029433
12:00−8ne61293100 0.3 1029426
15:00−8ne599495 0.3 1029324
18:00−12ne499655 0.0 1030145
21:00−15nne249983 0.0 103055